owner,sensor,date,latitude,longitude,vertical_datum,sea_water_practical_salinity,qcFlag 
TCOON,ioos:station:TCOON:079:1,2017-06-01T00:30:00Z,27.8708,-97.5177,0.0,15.8,1111122 
TCOON,ioos:station:TCOON:079:1,2017-06-01T01:30:00Z,27.8708,-97.5177,0.0,19.1,1111122 
TCOON,ioos:station:TCOON:079:1,2017-06-01T02:30:00Z,27.8708,-97.5177,0.0,20.0,1111122 
TCOON,ioos:station:TCOON:079:1,2017-06-01T03:30:00Z,27.8708,-97.5177,0.0,17.6,1111122 
TCOON,ioos:station:TCOON:079:1,2017-06-01T04:30:00Z,27.8708,-97.5177,0.0,12.3,1111122 
TCOON,ioos:station:TCOON:079:1,2017-06-01T05:30:00Z,27.8708,-97.5177,0.0,10.6,1111122 
TCOON,ioos:station:TCOON:079:1,2017-06-01T06:30:00Z,27.8708,-97.5177,0.0,6.7,1111122 
TCOON,ioos:station:TCOON:079:1,2017-06-01T07:30:00Z,27.8708,-97.5177,0.0,7.4,1111122 
TCOON,ioos:station:TCOON:079:1,2017-06-01T08:30:00Z,27.8708,-97.5177,0.0,7.6,1111122 
TCOON,ioos:station:TCOON:079:1,2017-06-01T09:30:00Z,27.8708,-97.5177,0.0,8.7,1111122 
TCOON,ioos:station:TCOON:079:1,2017-06-01T10:30:00Z,27.8708,-97.5177,0.0,4.5,1111122 
TCOON,ioos:station:TCOON:079:1,2017-06-01T11:30:00Z,27.8708,-97.5177,0.0,6.0,1111122 
TCOON,ioos:station:TCOON:079:1,2017-06-01T12:30:00Z,27.8708,-97.5177,0.0,3.8,1111122 
TCOON,ioos:station:TCOON:079:1,2017-06-01T13:30:00Z,27.8708,-97.5177,0.0,3.7,1111122 
TCOON,ioos:station:TCOON:079:1,2017-06-01T14:30:00Z,27.8708,-97.5177,0.0,4.5,1111122 
TCOON,ioos:station:TCOON:079:1,2017-06-01T15:30:00Z,27.8708,-97.5177,0.0,7.0,1111122 
TCOON,ioos:station:TCOON:079:1,2017-06-01T16:30:00Z,27.8708,-97.5177,0.0,7.3,1111122 
TCOON,ioos:station:TCOON:079:1,2017-06-01T17:30:00Z,27.8708,-97.5177,0.0,6.4,1111122 
TCOON,ioos:station:TCOON:079:1,2017-06-01T18:30:00Z,27.8708,-97.5177,0.0,9.8,1111122 
TCOON,ioos:station:TCOON:079:1,2017-06-01T19:30:00Z,27.8708,-97.5177,0.0,17.0,1111122 
TCOON,ioos:station:TCOON:079:1,2017-06-01T20:30:00Z,27.8708,-97.5177,0.0,15.2,1111122 
TCOON,ioos:station:TCOON:079:1,2017-06-01T21:30:00Z,27.8708,-97.5177,0.0,16.7,1111122 
TCOON,ioos:station:TCOON:079:1,2017-06-01T22:30:00Z,27.8708,-97.5177,0.0,18.1,1111122 
TCOON,ioos:station:TCOON:079:1,2017-06-01T23:30:00Z,27.8708,-97.5177,0.0,18.8,1111122 
TCOON,ioos:station:TCOON:079:1,2017-06-02T00:30:00Z,27.8708,-97.5177,0.0,19.4,1111122 
TCOON,ioos:station:TCOON:079:1,2017-06-02T01:30:00Z,27.8708,-97.5177,0.0,18.5,1111122 
TCOON,ioos:station:TCOON:079:1,2017-06-02T02:30:00Z,27.8708,-97.5177,0.0,14.2,1111122 
TCOON,ioos:station:TCOON:079:1,2017-06-02T03:30:00Z,27.8708,-97.5177,0.0,12.9,1111122 
TCOON,ioos:station:TCOON:079:1,2017-06-02T04:30:00Z,27.8708,-97.5177,0.0,11.5,1111122 
TCOON,ioos:station:TCOON:079:1,2017-06-02T05:30:00Z,27.8708,-97.5177,0.0,6.9,1111122 
TCOON,ioos:station:TCOON:079:1,2017-06-02T06:30:00Z,27.8708,-97.5177,0.0,7.5,1111122 
TCOON,ioos:station:TCOON:079:1,2017-06-02T07:30:00Z,27.8708,-97.5177,0.0,7.1,1111122 
TCOON,ioos:station:TCOON:079:1,2017-06-02T08:30:00Z,27.8708,-97.5177,0.0,8.2,1111122 
TCOON,ioos:station:TCOON:079:1,2017-06-02T09:30:00Z,27.8708,-97.5177,0.0,10.1,1111122 
TCOON,ioos:station:TCOON:079:1,2017-06-02T10:30:00Z,27.8708,-97.5177,0.0,11.5,1111122 
TCOON,ioos:station:TCOON:079:1,2017-06-02T11:30:00Z,27.8708,-97.5177,0.0,4.8,1111122 
TCOON,ioos:station:TCOON:079:1,2017-06-02T12:30:00Z,27.8708,-97.5177,0.0,5.1,1111122 
TCOON,ioos:station:TCOON:079:1,2017-06-02T13:30:00Z,27.8708,-97.5177,0.0,6.0,1111122 
TCOON,ioos:station:TCOON:079:1,2017-06-02T14:30:00Z,27.8708,-97.5177,0.0,6.1,1111122 
TCOON,ioos:station:TCOON:079:1,2017-06-02T15:30:00Z,27.8708,-97.5177,0.0,8.0,1111122 
TCOON,ioos:station:TCOON:079:1,2017-06-02T16:30:00Z,27.8708,-97.5177,0.0,18.5,1111122 
TCOON,ioos:station:TCOON:079:1,2017-06-02T17:30:00Z,27.8708,-97.5177,0.0,17.0,1111122 
TCOON,ioos:station:TCOON:079:1,2017-06-02T18:30:00Z,27.8708,-97.5177,0.0,13.6,1111122 
TCOON,ioos:station:TCOON:079:1,2017-06-02T19:30:00Z,27.8708,-97.5177,0.0,15.1,1111122 
TCOON,ioos:station:TCOON:079:1,2017-06-02T20:30:00Z,27.8708,-97.5177,0.0,15.9,1111122 
TCOON,ioos:station:TCOON:079:1,2017-06-02T21:30:00Z,27.8708,-97.5177,0.0,16.7,1111122 
TCOON,ioos:station:TCOON:079:1,2017-06-02T22:30:00Z,27.8708,-97.5177,0.0,17.9,1111122 
TCOON,ioos:station:TCOON:079:1,2017-06-02T23:30:00Z,27.8708,-97.5177,0.0,18.4,1111122 
TCOON,ioos:station:TCOON:079:1,2017-06-03T00:30:00Z,27.8708,-97.5177,0.0,18.9,1111122 
TCOON,ioos:station:TCOON:079:1,2017-06-03T01:30:00Z,27.8708,-97.5177,0.0,18.2,1111122 
TCOON,ioos:station:TCOON:079:1,2017-06-03T02:30:00Z,27.8708,-97.5177,0.0,16.6,1111122 
TCOON,ioos:station:TCOON:079:1,2017-06-03T03:30:00Z,27.8708,-97.5177,0.0,12.0,1111122 
TCOON,ioos:station:TCOON:079:1,2017-06-03T04:30:00Z,27.8708,-97.5177,0.0,9.6,1111122 
TCOON,ioos:station:TCOON:079:1,2017-06-03T05:30:00Z,27.8708,-97.5177,0.0,8.8,1111122 
TCOON,ioos:station:TCOON:079:1,2017-06-03T06:30:00Z,27.8708,-97.5177,0.0,9.0,1111122 
TCOON,ioos:station:TCOON:079:1,2017-06-03T07:30:00Z,27.8708,-97.5177,0.0,11.9,1111122 
TCOON,ioos:station:TCOON:079:1,2017-06-03T08:30:00Z,27.8708,-97.5177,0.0,12.7,1111122 
TCOON,ioos:station:TCOON:079:1,2017-06-03T09:30:00Z,27.8708,-97.5177,0.0,15.7,1111122 
TCOON,ioos:station:TCOON:079:1,2017-06-03T10:30:00Z,27.8708,-97.5177,0.0,16.7,1111122 
TCOON,ioos:station:TCOON:079:1,2017-06-03T11:30:00Z,27.8708,-97.5177,0.0,5.9,1111122 
TCOON,ioos:station:TCOON:079:1,2017-06-03T12:30:00Z,27.8708,-97.5177,0.0,5.6,1111122 
TCOON,ioos:station:TCOON:079:1,2017-06-03T13:30:00Z,27.8708,-97.5177,0.0,5.7,1111122 
TCOON,ioos:station:TCOON:079:1,2017-06-03T14:30:00Z,27.8708,-97.5177,0.0,9.3,1111122 
TCOON,ioos:station:TCOON:079:1,2017-06-03T15:30:00Z,27.8708,-97.5177,0.0,19.7,1111122 
TCOON,ioos:station:TCOON:079:1,2017-06-03T16:30:00Z,27.8708,-97.5177,0.0,19.5,1111122 
TCOON,ioos:station:TCOON:079:1,2017-06-03T17:30:00Z,27.8708,-97.5177,0.0,19.7,1111122 
TCOON,ioos:station:TCOON:079:1,2017-06-03T18:30:00Z,27.8708,-97.5177,0.0,16.7,1111122 
TCOON,ioos:station:TCOON:079:1,2017-06-03T19:30:00Z,27.8708,-97.5177,0.0,17.4,1111122 
TCOON,ioos:station:TCOON:079:1,2017-06-03T20:30:00Z,27.8708,-97.5177,0.0,18.7,1111122 
TCOON,ioos:station:TCOON:079:1,2017-06-03T21:30:00Z,27.8708,-97.5177,0.0,17.6,1111122 
TCOON,ioos:station:TCOON:079:1,2017-06-03T22:30:00Z,27.8708,-97.5177,0.0,17.4,1111122 
TCOON,ioos:station:TCOON:079:1,2017-06-03T23:30:00Z,27.8708,-97.5177,0.0,14.3,1111122 
TCOON,ioos:station:TCOON:079:1,2017-06-04T00:30:00Z,27.8708,-97.5177,0.0,7.4,1111122 
TCOON,ioos:station:TCOON:079:1,2017-06-04T01:30:00Z,27.8708,-97.5177,0.0,8.8,1111122 
TCOON,ioos:station:TCOON:079:1,2017-06-04T02:30:00Z,27.8708,-97.5177,0.0,10.5,1111122 
TCOON,ioos:station:TCOON:079:1,2017-06-04T03:30:00Z,27.8708,-97.5177,0.0,4.8,1111122 
TCOON,ioos:station:TCOON:079:1,2017-06-04T04:30:00Z,27.8708,-97.5177,0.0,5.3,1111122 
TCOON,ioos:station:TCOON:079:1,2017-06-04T05:30:00Z,27.8708,-97.5177,0.0,5.2,1111122 
TCOON,ioos:station:TCOON:079:1,2017-06-04T06:30:00Z,27.8708,-97.5177,0.0,5.2,1111122 
TCOON,ioos:station:TCOON:079:1,2017-06-04T07:30:00Z,27.8708,-97.5177,0.0,4.3,1111122 
TCOON,ioos:station:TCOON:079:1,2017-06-04T08:30:00Z,27.8708,-97.5177,0.0,10.3,1111122 
TCOON,ioos:station:TCOON:079:1,2017-06-04T09:30:00Z,27.8708,-97.5177,0.0,18.7,1111122 
TCOON,ioos:station:TCOON:079:1,2017-06-04T10:30:00Z,27.8708,-97.5177,0.0,18.7,1111122 
TCOON,ioos:station:TCOON:079:1,2017-06-04T11:30:00Z,27.8708,-97.5177,0.0,18.7,1111122 
TCOON,ioos:station:TCOON:079:1,2017-06-04T12:30:00Z,27.8708,-97.5177,0.0,19.3,1111122 
TCOON,ioos:station:TCOON:079:1,2017-06-04T13:30:00Z,27.8708,-97.5177,0.0,16.8,1111122 
TCOON,ioos:station:TCOON:079:1,2017-06-04T14:30:00Z,27.8708,-97.5177,0.0,17.2,1111122 
TCOON,ioos:station:TCOON:079:1,2017-06-04T15:30:00Z,27.8708,-97.5177,0.0,16.6,1111122 
TCOON,ioos:station:TCOON:079:1,2017-06-04T16:30:00Z,27.8708,-97.5177,0.0,16.7,1111122 
TCOON,ioos:station:TCOON:079:1,2017-06-04T17:30:00Z,27.8708,-97.5177,0.0,16.4,1111122 
TCOON,ioos:station:TCOON:079:1,2017-06-04T18:30:00Z,27.8708,-97.5177,0.0,17.3,1111122 
TCOON,ioos:station:TCOON:079:1,2017-06-04T19:30:00Z,27.8708,-97.5177,0.0,17.8,1111122 
TCOON,ioos:station:TCOON:079:1,2017-06-04T20:30:00Z,27.8708,-97.5177,0.0,19.8,1111122 
TCOON,ioos:station:TCOON:079:1,2017-06-04T21:30:00Z,27.8708,-97.5177,0.0,18.5,1111122 
TCOON,ioos:station:TCOON:079:1,2017-06-04T22:30:00Z,27.8708,-97.5177,0.0,19.3,1111122 
TCOON,ioos:station:TCOON:079:1,2017-06-04T23:30:00Z,27.8708,-97.5177,0.0,19.6,1111122 
TCOON,ioos:station:TCOON:079:1,2017-06-05T00:30:00Z,27.8708,-97.5177,0.0,15.5,1111122 
TCOON,ioos:station:TCOON:079:1,2017-06-05T01:30:00Z,27.8708,-97.5177,0.0,10.1,1111122 
TCOON,ioos:station:TCOON:079:1,2017-06-05T02:30:00Z,27.8708,-97.5177,0.0,7.6,1111122 
TCOON,ioos:station:TCOON:079:1,2017-06-05T03:30:00Z,27.8708,-97.5177,0.0,5.0,1111122 
TCOON,ioos:station:TCOON:079:1,2017-06-05T04:30:00Z,27.8708,-97.5177,0.0,5.3,1111122 
TCOON,ioos:station:TCOON:079:1,2017-06-05T05:30:00Z,27.8708,-97.5177,0.0,3.4,1111122 
TCOON,ioos:station:TCOON:079:1,2017-06-05T06:30:00Z,27.8708,-97.5177,0.0,4.1,1111122 
TCOON,ioos:station:TCOON:079:1,2017-06-05T07:30:00Z,27.8708,-97.5177,0.0,3.9,1111122 
TCOON,ioos:station:TCOON:079:1,2017-06-05T08:30:00Z,27.8708,-97.5177,0.0,3.9,1111122 
TCOON,ioos:station:TCOON:079:1,2017-06-05T09:30:00Z,27.8708,-97.5177,0.0,4.5,1111122 
TCOON,ioos:station:TCOON:079:1,2017-06-05T10:30:00Z,27.8708,-97.5177,0.0,4.6,1111122 
TCOON,ioos:station:TCOON:079:1,2017-06-05T11:30:00Z,27.8708,-97.5177,0.0,4.8,1111122 
TCOON,ioos:station:TCOON:079:1,2017-06-05T12:30:00Z,27.8708,-97.5177,0.0,5.7,1111122 
TCOON,ioos:station:TCOON:079:1,2017-06-05T13:30:00Z,27.8708,-97.5177,0.0,5.8,1111122 
TCOON,ioos:station:TCOON:079:1,2017-06-05T14:30:00Z,27.8708,-97.5177,0.0,13.7,1111122 
TCOON,ioos:station:TCOON:079:1,2017-06-05T15:30:00Z,27.8708,-97.5177,0.0,12.5,1111122 
TCOON,ioos:station:TCOON:079:1,2017-06-05T16:30:00Z,27.8708,-97.5177,0.0,19.1,1111122 
TCOON,ioos:station:TCOON:079:1,2017-06-05T17:30:00Z,27.8708,-97.5177,0.0,11.8,1111122 
TCOON,ioos:station:TCOON:079:1,2017-06-05T18:30:00Z,27.8708,-97.5177,0.0,10.6,1111122 
TCOON,ioos:station:TCOON:079:1,2017-06-05T19:30:00Z,27.8708,-97.5177,0.0,12.5,1111122 
TCOON,ioos:station:TCOON:079:1,2017-06-05T20:30:00Z,27.8708,-97.5177,0.0,16.2,1111122 
TCOON,ioos:station:TCOON:079:1,2017-06-05T21:30:00Z,27.8708,-97.5177,0.0,19.5,1111122 
TCOON,ioos:station:TCOON:079:1,2017-06-05T22:30:00Z,27.8708,-97.5177,0.0,19.7,1111122 
TCOON,ioos:station:TCOON:079:1,2017-06-05T23:30:00Z,27.8708,-97.5177,0.0,17.6,1111122 
TCOON,ioos:station:TCOON:079:1,2017-06-06T00:30:00Z,27.8708,-97.5177,0.0,13.5,1111122 
TCOON,ioos:station:TCOON:079:1,2017-06-06T18:30:00Z,27.8708,-97.5177,0.0,13.5,1111122 
TCOON,ioos:station:TCOON:079:1,2017-06-06T19:30:00Z,27.8708,-97.5177,0.0,13.7,1111122 
TCOON,ioos:station:TCOON:079:1,2017-06-06T20:30:00Z,27.8708,-97.5177,0.0,16.1,1111122 
TCOON,ioos:station:TCOON:079:1,2017-06-06T21:30:00Z,27.8708,-97.5177,0.0,16.2,1111122 
TCOON,ioos:station:TCOON:079:1,2017-06-06T22:30:00Z,27.8708,-97.5177,0.0,7.8,1111122 
TCOON,ioos:station:TCOON:079:1,2017-06-06T23:30:00Z,27.8708,-97.5177,0.0,8.1,1111122 
TCOON,ioos:station:TCOON:079:1,2017-06-07T00:30:00Z,27.8708,-97.5177,0.0,7.4,1111122 
TCOON,ioos:station:TCOON:079:1,2017-06-07T01:30:00Z,27.8708,-97.5177,0.0,6.4,1111122 
TCOON,ioos:station:TCOON:079:1,2017-06-07T02:30:00Z,27.8708,-97.5177,0.0,5.6,1111122 
TCOON,ioos:station:TCOON:079:1,2017-06-07T03:30:00Z,27.8708,-97.5177,0.0,5.1,1111122 
TCOON,ioos:station:TCOON:079:1,2017-06-07T04:30:00Z,27.8708,-97.5177,0.0,4.2,1111122 
TCOON,ioos:station:TCOON:079:1,2017-06-07T05:30:00Z,27.8708,-97.5177,0.0,3.3,1111122 
TCOON,ioos:station:TCOON:079:1,2017-06-07T06:30:00Z,27.8708,-97.5177,0.0,3.2,1111122 
TCOON,ioos:station:TCOON:079:1,2017-06-07T07:30:00Z,27.8708,-97.5177,0.0,3.3,1111122 
TCOON,ioos:station:TCOON:079:1,2017-06-07T08:30:00Z,27.8708,-97.5177,0.0,3.4,1111122 
TCOON,ioos:station:TCOON:079:1,2017-06-07T09:30:00Z,27.8708,-97.5177,0.0,4.4,1111122 
TCOON,ioos:station:TCOON:079:1,2017-06-07T10:30:00Z,27.8708,-97.5177,0.0,5.9,1111122 
TCOON,ioos:station:TCOON:079:1,2017-06-07T11:30:00Z,27.8708,-97.5177,0.0,10.2,1111122 
TCOON,ioos:station:TCOON:079:1,2017-06-07T12:30:00Z,27.8708,-97.5177,0.0,18.9,1111122 
TCOON,ioos:station:TCOON:079:1,2017-06-07T13:30:00Z,27.8708,-97.5177,0.0,18.7,1111122 
TCOON,ioos:station:TCOON:079:1,2017-06-07T14:30:00Z,27.8708,-97.5177,0.0,17.1,1111122 
TCOON,ioos:station:TCOON:079:1,2017-06-07T15:30:00Z,27.8708,-97.5177,0.0,17.5,1111122 
TCOON,ioos:station:TCOON:079:1,2017-06-07T16:30:00Z,27.8708,-97.5177,0.0,18.0,1111122 
TCOON,ioos:station:TCOON:079:1,2017-06-07T17:30:00Z,27.8708,-97.5177,0.0,18.3,1111122 
TCOON,ioos:station:TCOON:079:1,2017-06-07T18:30:00Z,27.8708,-97.5177,0.0,18.3,1111122 
TCOON,ioos:station:TCOON:079:1,2017-06-07T19:30:00Z,27.8708,-97.5177,0.0,18.4,1111122 
TCOON,ioos:station:TCOON:079:1,2017-06-07T20:30:00Z,27.8708,-97.5177,0.0,18.1,1111122 
TCOON,ioos:station:TCOON:079:1,2017-06-07T21:30:00Z,27.8708,-97.5177,0.0,17.5,1111122 
TCOON,ioos:station:TCOON:079:1,2017-06-07T22:30:00Z,27.8708,-97.5177,0.0,15.7,1111122 
TCOON,ioos:station:TCOON:079:1,2017-06-07T23:30:00Z,27.8708,-97.5177,0.0,12.7,1111122 
TCOON,ioos:station:TCOON:079:1,2017-06-08T00:30:00Z,27.8708,-97.5177,0.0,11.3,1111122 
TCOON,ioos:station:TCOON:079:1,2017-06-08T01:30:00Z,27.8708,-97.5177,0.0,6.4,1111122 
TCOON,ioos:station:TCOON:079:1,2017-06-08T02:30:00Z,27.8708,-97.5177,0.0,5.7,1111122 
TCOON,ioos:station:TCOON:079:1,2017-06-08T03:30:00Z,27.8708,-97.5177,0.0,5.8,1111122 
TCOON,ioos:station:TCOON:079:1,2017-06-08T04:30:00Z,27.8708,-97.5177,0.0,4.8,1111122 
TCOON,ioos:station:TCOON:079:1,2017-06-08T05:30:00Z,27.8708,-97.5177,0.0,3.6,1111122 
TCOON,ioos:station:TCOON:079:1,2017-06-08T06:30:00Z,27.8708,-97.5177,0.0,4.0,1111122 
TCOON,ioos:station:TCOON:079:1,2017-06-08T07:30:00Z,27.8708,-97.5177,0.0,3.9,1111122 
TCOON,ioos:station:TCOON:079:1,2017-06-08T08:30:00Z,27.8708,-97.5177,0.0,3.6,1111122 
TCOON,ioos:station:TCOON:079:1,2017-06-08T09:30:00Z,27.8708,-97.5177,0.0,3.9,1111122 
TCOON,ioos:station:TCOON:079:1,2017-06-08T10:30:00Z,27.8708,-97.5177,0.0,4.5,1111122 
TCOON,ioos:station:TCOON:079:1,2017-06-08T11:30:00Z,27.8708,-97.5177,0.0,7.9,1111122 
TCOON,ioos:station:TCOON:079:1,2017-06-08T12:30:00Z,27.8708,-97.5177,0.0,16.1,1111122 
TCOON,ioos:station:TCOON:079:1,2017-06-08T13:30:00Z,27.8708,-97.5177,0.0,18.2,1111122 
TCOON,ioos:station:TCOON:079:1,2017-06-08T14:30:00Z,27.8708,-97.5177,0.0,18.6,1111122 
TCOON,ioos:station:TCOON:079:1,2017-06-08T15:30:00Z,27.8708,-97.5177,0.0,19.0,1111122 
TCOON,ioos:station:TCOON:079:1,2017-06-08T16:30:00Z,27.8708,-97.5177,0.0,18.9,1111122 
TCOON,ioos:station:TCOON:079:1,2017-06-08T17:30:00Z,27.8708,-97.5177,0.0,18.8,1111122 
TCOON,ioos:station:TCOON:079:1,2017-06-08T18:30:00Z,27.8708,-97.5177,0.0,19.0,1111122 
TCOON,ioos:station:TCOON:079:1,2017-06-08T19:30:00Z,27.8708,-97.5177,0.0,18.8,1111122 
TCOON,ioos:station:TCOON:079:1,2017-06-08T20:30:00Z,27.8708,-97.5177,0.0,18.8,1111122 
TCOON,ioos:station:TCOON:079:1,2017-06-08T21:30:00Z,27.8708,-97.5177,0.0,18.8,1111122 
TCOON,ioos:station:TCOON:079:1,2017-06-08T22:30:00Z,27.8708,-97.5177,0.0,18.7,1111122 
TCOON,ioos:station:TCOON:079:1,2017-06-08T23:30:00Z,27.8708,-97.5177,0.0,18.7,1111122 
TCOON,ioos:station:TCOON:079:1,2017-06-09T00:30:00Z,27.8708,-97.5177,0.0,18.7,1111122 
TCOON,ioos:station:TCOON:079:1,2017-06-09T01:30:00Z,27.8708,-97.5177,0.0,18.2,1111122 
TCOON,ioos:station:TCOON:079:1,2017-06-09T02:30:00Z,27.8708,-97.5177,0.0,15.2,1111122 
TCOON,ioos:station:TCOON:079:1,2017-06-09T03:30:00Z,27.8708,-97.5177,0.0,14.4,1111122 
TCOON,ioos:station:TCOON:079:1,2017-06-09T04:30:00Z,27.8708,-97.5177,0.0,13.3,1111122 
TCOON,ioos:station:TCOON:079:1,2017-06-09T05:30:00Z,27.8708,-97.5177,0.0,12.8,1111122 
TCOON,ioos:station:TCOON:079:1,2017-06-09T06:30:00Z,27.8708,-97.5177,0.0,11.9,1111122 
TCOON,ioos:station:TCOON:079:1,2017-06-09T07:30:00Z,27.8708,-97.5177,0.0,9.8,1111122 
TCOON,ioos:station:TCOON:079:1,2017-06-09T08:30:00Z,27.8708,-97.5177,0.0,7.2,1111122 
TCOON,ioos:station:TCOON:079:1,2017-06-09T09:30:00Z,27.8708,-97.5177,0.0,9.0,1111122 
TCOON,ioos:station:TCOON:079:1,2017-06-09T10:30:00Z,27.8708,-97.5177,0.0,9.3,1111122 
TCOON,ioos:station:TCOON:079:1,2017-06-09T11:30:00Z,27.8708,-97.5177,0.0,10.5,1111122 
TCOON,ioos:station:TCOON:079:1,2017-06-09T12:30:00Z,27.8708,-97.5177,0.0,12.5,1111122 
TCOON,ioos:station:TCOON:079:1,2017-06-09T13:30:00Z,27.8708,-97.5177,0.0,13.6,1111122 
TCOON,ioos:station:TCOON:079:1,2017-06-09T14:30:00Z,27.8708,-97.5177,0.0,16.0,1111122 
TCOON,ioos:station:TCOON:079:1,2017-06-09T15:30:00Z,27.8708,-97.5177,0.0,17.7,1111122 
TCOON,ioos:station:TCOON:079:1,2017-06-09T16:30:00Z,27.8708,-97.5177,0.0,18.0,1111122 
TCOON,ioos:station:TCOON:079:1,2017-06-09T17:30:00Z,27.8708,-97.5177,0.0,18.5,1111122 
TCOON,ioos:station:TCOON:079:1,2017-06-09T18:30:00Z,27.8708,-97.5177,0.0,19.0,1111122 
TCOON,ioos:station:TCOON:079:1,2017-06-09T19:30:00Z,27.8708,-97.5177,0.0,19.4,1111122 
TCOON,ioos:station:TCOON:079:1,2017-06-09T20:30:00Z,27.8708,-97.5177,0.0,19.7,1111122 
TCOON,ioos:station:TCOON:079:1,2017-06-09T21:30:00Z,27.8708,-97.5177,0.0,19.9,1111122 
TCOON,ioos:station:TCOON:079:1,2017-06-09T23:30:00Z,27.8708,-97.5177,0.0,20.0,1111122 
TCOON,ioos:station:TCOON:079:1,2017-06-10T00:30:00Z,27.8708,-97.5177,0.0,20.2,1111122 
TCOON,ioos:station:TCOON:079:1,2017-06-10T01:30:00Z,27.8708,-97.5177,0.0,20.2,1111122 
TCOON,ioos:station:TCOON:079:1,2017-06-10T02:30:00Z,27.8708,-97.5177,0.0,20.1,1111122 
TCOON,ioos:station:TCOON:079:1,2017-06-10T03:30:00Z,27.8708,-97.5177,0.0,18.8,1111122 
TCOON,ioos:station:TCOON:079:1,2017-06-10T04:30:00Z,27.8708,-97.5177,0.0,17.6,1111122 
TCOON,ioos:station:TCOON:079:1,2017-06-10T05:30:00Z,27.8708,-97.5177,0.0,17.4,1111122 
TCOON,ioos:station:TCOON:079:1,2017-06-10T06:30:00Z,27.8708,-97.5177,0.0,17.1,1111122 
TCOON,ioos:station:TCOON:079:1,2017-06-10T07:30:00Z,27.8708,-97.5177,0.0,16.2,1111122 
TCOON,ioos:station:TCOON:079:1,2017-06-10T08:30:00Z,27.8708,-97.5177,0.0,16.2,1111122 
TCOON,ioos:station:TCOON:079:1,2017-06-10T09:30:00Z,27.8708,-97.5177,0.0,15.9,1111122 
TCOON,ioos:station:TCOON:079:1,2017-06-10T10:30:00Z,27.8708,-97.5177,0.0,16.9,1111122 
TCOON,ioos:station:TCOON:079:1,2017-06-10T11:30:00Z,27.8708,-97.5177,0.0,17.2,1111122 
TCOON,ioos:station:TCOON:079:1,2017-06-10T12:30:00Z,27.8708,-97.5177,0.0,17.7,1111122 
TCOON,ioos:station:TCOON:079:1,2017-06-10T23:30:00Z,27.8708,-97.5177,0.0,20.5,1111122 
TCOON,ioos:station:TCOON:079:1,2017-06-11T00:30:00Z,27.8708,-97.5177,0.0,20.4,1111122 
TCOON,ioos:station:TCOON:079:1,2017-06-11T01:30:00Z,27.8708,-97.5177,0.0,20.8,1111122 
TCOON,ioos:station:TCOON:079:1,2017-06-11T02:30:00Z,27.8708,-97.5177,0.0,18.9,1111122 
TCOON,ioos:station:TCOON:079:1,2017-06-11T03:30:00Z,27.8708,-97.5177,0.0,19.0,1111122 
TCOON,ioos:station:TCOON:079:1,2017-06-11T04:30:00Z,27.8708,-97.5177,0.0,19.8,1111122 
TCOON,ioos:station:TCOON:079:1,2017-06-11T05:30:00Z,27.8708,-97.5177,0.0,19.5,1111122 
TCOON,ioos:station:TCOON:079:1,2017-06-11T06:30:00Z,27.8708,-97.5177,0.0,18.8,1111122 
TCOON,ioos:station:TCOON:079:1,2017-06-11T07:30:00Z,27.8708,-97.5177,0.0,19.2,1111122 
TCOON,ioos:station:TCOON:079:1,2017-06-11T08:30:00Z,27.8708,-97.5177,0.0,18.7,1111122 
TCOON,ioos:station:TCOON:079:1,2017-06-11T09:30:00Z,27.8708,-97.5177,0.0,18.5,1111122 
TCOON,ioos:station:TCOON:079:1,2017-06-11T10:30:00Z,27.8708,-97.5177,0.0,18.7,1111122 
TCOON,ioos:station:TCOON:079:1,2017-06-11T11:30:00Z,27.8708,-97.5177,0.0,18.4,1111122 
TCOON,ioos:station:TCOON:079:1,2017-06-11T12:30:00Z,27.8708,-97.5177,0.0,18.6,1111122 
TCOON,ioos:station:TCOON:079:1,2017-06-11T13:30:00Z,27.8708,-97.5177,0.0,18.8,1111122 
TCOON,ioos:station:TCOON:079:1,2017-06-11T14:30:00Z,27.8708,-97.5177,0.0,19.7,1111122 
TCOON,ioos:station:TCOON:079:1,2017-06-11T15:30:00Z,27.8708,-97.5177,0.0,19.8,1111122 
TCOON,ioos:station:TCOON:079:1,2017-06-11T16:30:00Z,27.8708,-97.5177,0.0,19.4,1111122 
TCOON,ioos:station:TCOON:079:1,2017-06-11T17:30:00Z,27.8708,-97.5177,0.0,20.2,1111122 
TCOON,ioos:station:TCOON:079:1,2017-06-11T18:30:00Z,27.8708,-97.5177,0.0,20.7,1111122 
TCOON,ioos:station:TCOON:079:1,2017-06-11T19:30:00Z,27.8708,-97.5177,0.0,21.2,1111122 
TCOON,ioos:station:TCOON:079:1,2017-06-11T20:30:00Z,27.8708,-97.5177,0.0,21.6,1111122 
TCOON,ioos:station:TCOON:079:1,2017-06-11T21:30:00Z,27.8708,-97.5177,0.0,21.6,1111122 
TCOON,ioos:station:TCOON:079:1,2017-06-11T22:30:00Z,27.8708,-97.5177,0.0,21.7,1111122 
TCOON,ioos:station:TCOON:079:1,2017-06-11T23:30:00Z,27.8708,-97.5177,0.0,22.1,1111122 
TCOON,ioos:station:TCOON:079:1,2017-06-12T00:30:00Z,27.8708,-97.5177,0.0,22.2,1111122 
TCOON,ioos:station:TCOON:079:1,2017-06-12T01:30:00Z,27.8708,-97.5177,0.0,22.1,1111122 
TCOON,ioos:station:TCOON:079:1,2017-06-12T02:30:00Z,27.8708,-97.5177,0.0,20.8,1111122 
TCOON,ioos:station:TCOON:079:1,2017-06-12T03:30:00Z,27.8708,-97.5177,0.0,20.2,1111122 
TCOON,ioos:station:TCOON:079:1,2017-06-12T04:30:00Z,27.8708,-97.5177,0.0,20.1,1111122 
TCOON,ioos:station:TCOON:079:1,2017-06-12T05:30:00Z,27.8708,-97.5177,0.0,19.5,1111122 
TCOON,ioos:station:TCOON:079:1,2017-06-12T06:30:00Z,27.8708,-97.5177,0.0,19.2,1111122 
TCOON,ioos:station:TCOON:079:1,2017-06-12T07:30:00Z,27.8708,-97.5177,0.0,19.1,1111122 
TCOON,ioos:station:TCOON:079:1,2017-06-12T08:30:00Z,27.8708,-97.5177,0.0,18.7,1111122 
TCOON,ioos:station:TCOON:079:1,2017-06-12T09:30:00Z,27.8708,-97.5177,0.0,17.8,1111122 
TCOON,ioos:station:TCOON:079:1,2017-06-12T10:30:00Z,27.8708,-97.5177,0.0,14.3,1111122 
TCOON,ioos:station:TCOON:079:1,2017-06-12T11:30:00Z,27.8708,-97.5177,0.0,13.9,1111122 
TCOON,ioos:station:TCOON:079:1,2017-06-12T12:30:00Z,27.8708,-97.5177,0.0,14.2,1111122 
TCOON,ioos:station:TCOON:079:1,2017-06-12T13:30:00Z,27.8708,-97.5177,0.0,20.1,1111122 
TCOON,ioos:station:TCOON:079:1,2017-06-13T15:30:00Z,27.8708,-97.5177,0.0,20.4,1111122 
TCOON,ioos:station:TCOON:079:1,2017-06-13T16:30:00Z,27.8708,-97.5177,0.0,20.4,1111122 
TCOON,ioos:station:TCOON:079:1,2017-06-13T17:30:00Z,27.8708,-97.5177,0.0,21.5,1111122 
TCOON,ioos:station:TCOON:079:1,2017-06-13T18:30:00Z,27.8708,-97.5177,0.0,20.5,1111122 
TCOON,ioos:station:TCOON:079:1,2017-06-13T19:30:00Z,27.8708,-97.5177,0.0,21.4,1111122 
TCOON,ioos:station:TCOON:079:1,2017-06-13T20:30:00Z,27.8708,-97.5177,0.0,22.2,1111122 
TCOON,ioos:station:TCOON:079:1,2017-06-13T21:30:00Z,27.8708,-97.5177,0.0,22.8,1111122 
TCOON,ioos:station:TCOON:079:1,2017-06-13T22:30:00Z,27.8708,-97.5177,0.0,23.3,1111122 
TCOON,ioos:station:TCOON:079:1,2017-06-13T23:30:00Z,27.8708,-97.5177,0.0,23.6,1111122 
TCOON,ioos:station:TCOON:079:1,2017-06-14T00:30:00Z,27.8708,-97.5177,0.0,23.6,1111122 
TCOON,ioos:station:TCOON:079:1,2017-06-14T01:30:00Z,27.8708,-97.5177,0.0,23.6,1111122 
TCOON,ioos:station:TCOON:079:1,2017-06-14T04:30:00Z,27.8708,-97.5177,0.0,22.1,1111122 
TCOON,ioos:station:TCOON:079:1,2017-06-14T05:30:00Z,27.8708,-97.5177,0.0,21.7,1111122 
TCOON,ioos:station:TCOON:079:1,2017-06-14T06:30:00Z,27.8708,-97.5177,0.0,21.0,1111122 
TCOON,ioos:station:TCOON:079:1,2017-06-14T07:30:00Z,27.8708,-97.5177,0.0,20.6,1111122 
TCOON,ioos:station:TCOON:079:1,2017-06-14T08:30:00Z,27.8708,-97.5177,0.0,20.0,1111122 
TCOON,ioos:station:TCOON:079:1,2017-06-14T09:30:00Z,27.8708,-97.5177,0.0,19.9,1111122 
TCOON,ioos:station:TCOON:079:1,2017-06-14T10:30:00Z,27.8708,-97.5177,0.0,19.9,1111122 
TCOON,ioos:station:TCOON:079:1,2017-06-14T11:30:00Z,27.8708,-97.5177,0.0,20.0,1111122 
TCOON,ioos:station:TCOON:079:1,2017-06-14T12:30:00Z,27.8708,-97.5177,0.0,19.9,1111122 
TCOON,ioos:station:TCOON:079:1,2017-06-14T13:30:00Z,27.8708,-97.5177,0.0,19.9,1111122 
TCOON,ioos:station:TCOON:079:1,2017-06-14T14:30:00Z,27.8708,-97.5177,0.0,20.0,1111122 
TCOON,ioos:station:TCOON:079:1,2017-06-14T15:30:00Z,27.8708,-97.5177,0.0,21.0,1111122 
TCOON,ioos:station:TCOON:079:1,2017-06-14T16:30:00Z,27.8708,-97.5177,0.0,21.0,1111122 
TCOON,ioos:station:TCOON:079:1,2017-06-14T17:30:00Z,27.8708,-97.5177,0.0,21.2,1111122 